Regional Weather Roundup
Issued by NWS

Home | Current Version | Previous Version | Text Only | Print | Product List | Glossary Off
Versions: 1 2 3 4 5 6 7 8 9 10 11 12 13 14 15 16 17 18 19 20 21 22 23 24 25 26 27 28 29 30 31 32 33 34 35 36 37 38 39 40 41 42 43 44 45 46 47 48 49 50

593
ASUS44 KLIX 221901
RWRLA
LOUISIANA WEATHER ROUNDUP
NATIONAL WEATHER SERVICE NEW ORLEANS LA
100 PM CST SAT NOV 22 2014

NOTE: "FAIR" INDICATES FEW OR NO CLOUDS BELOW 12,000 FEET WITH NO
      SIGNIFICANT WEATHER AND/OR OBSTRUCTIONS TO VISIBILITY.
      SKY/WX - SKY CONDITION AND SIGNIFICANT WEATHER.
      TMP - AIR TEMPERATURE.    DP   - DEWPOINT TEMPERATURE.
      RH  - RELATIVE HUMIDITY.  PRES - PRESSURE.
      HX  - HEAT INDEX.         WCI  - WIND CHILL INDEX.

*  THESE STATIONS ARE NOT NWS OR FAA STATIONS AND ARE NOT UNDER
   NWS QUALITY CONTROL.

LAZ040-048-061>063-065-066-069-222000-
SOUTHEAST LOUISIANA

CITY           SKY/WX    TMP DP  RH WIND       PRES   REMARKS
N.O. AUDUBON   NOT AVBL
N.O. INTL ARPT CLOUDY    67  58  72 E10       30.07F
N.O. LAKEFRONT CLOUDY    64  57  78 E17       30.09F
N.O. DOWNTOWN* FAIR      66  55  68 E12       30.09F
SLIDELL        CLOUDY    66  57  72 E9        30.11F
BATON ROUGE    CLOUDY    67  58  72 E16       30.08F
BOOTHVILLE     CLOUDY    67  63  87 E10       30.10F
BELLE CHASSE   CLOUDY    68  59  73 E17G24    30.07F
BOGALUSA*        N/A     71  54  54 SE9       30.13F
NEW ROADS*     NOT AVBL
GONZALES*      NOT AVBL
HAMMOND*       NOT AVBL
HOUMA*         MOSUNNY   70  63  78 E17       30.05F
PORT FOURCHON* CLEAR     70  64  83 E14       30.08F

$$

LAZ041-044-053-054-222000-
SOUTHWEST LOUISIANA

CITY           SKY/WX    TMP DP  RH WIND       PRES   REMARKS
LAKE CHARLES   CLOUDY    71  61  70 SE21G29   30.04F
LAFAYETTE      PTSUNNY   70  58  65 SE8       30.07F
PATTERSON      CLOUDY    72  61  68 E9G20     30.07S
SALT POINT       N/A     72  61  68 SE13      30.04S
NEW IBERIA     CLOUDY    72  60  66 SE18      30.07F
CHENAULT AIRPK CLOUDY    72  61  68 SE15G23   30.05F

$$

LAZ027-028-222000-
CENTRAL LOUISIANA

CITY           SKY/WX    TMP DP  RH WIND       PRES   REMARKS
FORT POLK      CLOUDY    68  59  73 SE8       30.04F
ALEXANDRIA INT CLOUDY    68  56  65 SE15      30.06F
ALEXANDRIA     CLOUDY    69  56  62 SE8       30.07F

$$

LAZ001-002-222000-
NORTHWEST LOUISIANA

CITY           SKY/WX    TMP DP  RH WIND       PRES   REMARKS
SHREVEPORT     PTSUNNY   71  56  58 S13       30.01F
BARKSDALE AFB  MOSUNNY   71  57  60 S18       30.01F
DTN SHREVEPORT MOSUNNY   69  56  62 S16       30.02F

$$

LAZ014-016-222000-
NORTHEAST LOUISIANA

CITY           SKY/WX    TMP DP  RH WIND       PRES   REMARKS
MONROE         PTSUNNY   71  56  58 S9        30.08F
TALLULAH       MOSUNNY   70  52  52 S12       30.11F

$$




USA.gov is the U.S. government's official web portal to all federal, state and local government web resources and services.